FW7161 Weather Reports


Display with metric or nautical units.
time (UTC)temp
F
wind
direction
speed
MPH
gust
MPH
rain 1hr
in
rain 24hr
in
rain mn
in
humidity
%
barometer
mb
20260506175138 30 5 0.0 0.0 0.00 0.02 0.02 96 1023.0
20260506173637 30 357 0.0 0.0 0.00 0.02 0.02 96 1022.7
20260506172132 30 30 0.0 0.0 0.00 0.02 0.02 96 1022.6
20260506170631 30 39 0.0 0.0 0.00 0.02 0.02 96 1022.8
20260506165127 30 34 0.0 1.0 0.00 0.02 0.02 96 1022.5
20260506163623 30 46 0.0 1.0 0.00 0.02 0.02 96 1022.4
20260506162122 30 30 0.0 0.0 0.00 0.02 0.02 96 1022.5
20260506160619 30 3 2.0 5.0 0.07 0.01 0.01 96 1021.7
20260506155116 30 33 0.0 0.0 0.00 0.00 0.00 97 1021.6
20260506152930 30 33 2.0 5.0 0.00 0.00 0.00 97 1021.5
20260506151428 29 34 0.0 0.0 0.00 0.00 0.00 97 1021.3
20260506145924 28 35 1.0 3.0 0.00 0.00 0.00 97 1021.4
20260506144420 28 7 0.0 2.0 0.00 0.00 0.00 97 1021.4
20260506142919 28 37 1.0 2.0 0.00 0.00 0.00 97 1021.4
20260506141419 28 40 0.0 2.0 0.00 0.00 0.00 97 1021.3
20260506135916 28 344 0.0 0.0 0.00 0.00 0.00 97 1021.0
20260506134411 27 348 2.0 5.0 0.00 0.00 0.00 97 1021.3
20260506132908 27 43 1.0 3.0 0.00 0.00 0.00 98 1020.8
20260506131404 27 10 0.0 0.0 0.00 0.00 0.00 98 1020.8
20260506125902 27 33 0.0 1.0 0.00 0.00 0.00 98 1020.3
20260506124400 27 7 0.0 0.0 0.00 0.00 0.00 97 1020.4
20260506122859 27 37 0.0 0.0 0.00 0.00 0.00 97 1019.9
20260506121357 27 348 1.0 3.0 0.00 0.00 0.00 97 1019.3
20260506115854 27 11 3.0 7.0 0.00 0.00 0.00 97 1019.6
20260506114353 28 13 2.0 5.0 0.00 0.00 0.00 97 1019.6
20260506112851 27 353 0.0 0.0 0.00 0.00 0.00 96 1019.6
20260506111350 28 351 4.0 5.0 0.00 0.00 0.00 96 1019.3
20260506105846 28 346 0.0 0.0 0.00 0.00 0.00 95 1019.1
20260506104344 28 0 5.0 6.0 0.00 0.00 0.00 95 1019.3
20260506102842 28 357 0.0 0.0 0.00 0.00 0.00 94 1018.8
20260506101338 29 350 3.0 7.0 0.00 0.00 0.00 93 1018.9
20260506095838 29 354 0.0 1.0 0.00 0.00 0.00 93 1018.9
20260506094337 29 4 3.0 6.0 0.00 0.00 0.00 93 1018.9
20260506092835 29 358 5.0 6.0 0.00 0.00 0.00 92 1018.7
20260506091333 30 355 3.0 5.0 0.00 0.00 0.00 91 1018.7
20260506085830 30 7 4.0 6.0 0.00 0.00 0.00 90 1018.7
20260506084326 30 344 1.0 6.0 0.00 0.00 0.00 91 1018.9
20260506082823 30 355 3.0 5.0 0.00 0.00 0.00 91 1018.6
20260506081320 30 323 3.0 7.0 0.00 0.00 0.00 92 1018.7
20260506072812 30 3 0.0 0.0 0.00 0.00 0.00 95 1018.7
20260506071311 30 0 5.0 6.0 0.00 0.00 0.00 93 1018.6
20260506061258 30 356 0.0 0.0 0.00 0.00 0.00 95 1018.5
20260506051249 31 321 1.0 1.0 0.00 0.12 0.12 98 1018.2
20260506044243 31 351 0.0 0.0 0.00 0.12 0.12 99 1018.0
20260506042743 31 349 0.0 0.0 0.00 0.12 0.12 99 1018.0
20260506041241 31 346 0.0 0.0 0.00 0.12 0.12 99 1018.2
20260506035738 31 347 0.0 0.0 0.00 0.12 0.12 99 1018.2
20260506034235 31 348 0.0 0.0 0.00 0.12 0.12 99 1017.7
20260506032732 31 348 0.0 0.0 0.00 0.12 0.12 99 1017.8
20260506031229 32 348 0.0 0.0 0.00 0.12 0.12 99 1017.8
20260506025727 32 350 0.0 0.0 0.00 0.12 0.12 99 1017.2
20260506024223 32 5 0.0 0.0 0.07 0.12 0.12 99 1017.1
20260506022719 33 85 0.0 0.0 0.00 0.11 0.11 99 1016.9
20260506021217 33 88 0.0 0.0 0.00 0.11 0.11 99 1016.5
20260506015715 33 88 0.0 0.0 0.00 0.11 0.11 99 1016.6
20260506014211 33 123 0.0 0.0 0.00 0.11 0.11 99 1016.3
20260506012707 33 96 0.0 0.0 0.00 0.11 0.11 99 1016.0
20260506011203 33 92 0.0 0.0 0.00 0.11 0.11 99 1015.5
20260506005702 33 100 0.0 0.0 0.00 0.11 0.11 99 1015.8
20260506004158 33 98 0.0 0.0 0.00 0.11 0.11 99 1016.3
20260506002658 33 120 0.0 0.0 0.00 0.11 0.11 99 1016.0
20260506001153 33 110 0.0 0.0 0.00 0.11 0.11 99 1015.9
20260505235651 33 122 0.0 0.0 0.05 0.11 0.11 99 1015.5
20260505234148 33 133 1.0 3.0 0.00 0.10 0.10 99 1015.5
20260505232646 34 102 0.0 0.0 0.07 0.10 0.10 99 1015.3
20260505231144 35 118 3.0 5.0 0.00 0.09 0.09 99 1015.0
20260505225640 35 114 3.0 7.0 0.00 0.09 0.09 99 1015.0
20260505224137 35 117 0.0 0.0 0.00 0.09 0.09 99 1015.0
20260505222632 34 86 1.0 2.0 0.05 0.09 0.09 99 1014.8
20260505221128 35 112 0.0 0.0 0.00 0.08 0.08 99 1014.9
20260505215626 35 110 0.0 0.0 0.00 0.08 0.08 99 1015.3
20260505214124 35 111 0.0 0.0 0.00 0.08 0.08 98 1015.4
20260505212620 35 128 0.0 0.0 0.00 0.08 0.08 98 1015.7
20260505211118 35 109 0.0 2.0 0.00 0.08 0.08 98 1015.9
20260505205615 35 118 0.0 2.0 0.00 0.08 0.08 98 1015.7
20260505204113 35 109 2.0 5.0 0.00 0.08 0.08 98 1015.8
20260505202608 35 114 2.0 5.0 0.00 0.08 0.08 98 1015.9
20260505201105 35 117 1.0 3.0 0.00 0.08 0.08 98 1016.3
20260505195601 35 123 3.0 5.0 0.00 0.08 0.08 98 1016.8
20260505194057 35 103 0.0 0.0 0.00 0.08 0.08 98 1016.6
20260505192556 35 99 0.0 0.0 0.00 0.08 0.08 98 1016.4
20260505191055 35 94 0.0 2.0 0.07 0.08 0.08 98 1016.8
20260505185554 35 111 3.0 3.0 0.00 0.07 0.07 98 1017.0
20260505184050 35 99 1.0 3.0 0.05 0.07 0.07 98 1017.0
20260505182546 35 131 4.0 6.0 0.00 0.06 0.06 98 1017.1
20260505181043 35 118 6.0 8.0 0.00 0.06 0.06 98 1017.1